Location: Blanot
(47.1713°N, 4.2340°E)
Time: 00:31:33
(UTC+00:00)

Okean 1 - Pass Details

Date: 14 July 2020
Orbit: 538 x 556 km, 82.5° (Epoch: 03 August)

Event Time Altitude Azimuth Distance (km) Brightness Sun altitude
Rises 00:16:54 0° 357° (N) 2,707 8.3 -20.9°
Reaches altitude 10° 00:19:11 10° 6° (N) 1,811 7.1 -20.9°
Maximum altitude 00:22:54 38° 75° (ENE) 842 4.4 -20.8°
Enters shadow 00:24:07 30° 115° (ESE) 990 4.4 -20.7°
